Regional Weather Roundup
Issued by NWS

Home | Current Version | Previous Version | Text Only | Print | Product List | Glossary Off
Versions: 1 2 3 4 5 6 7 8 9 10 11 12 13 14 15 16 17 18 19 20 21 22 23 24 25 26 27 28 29 30 31 32 33 34 35 36 37 38 39 40 41 42 43 44 45 46 47 48 49 50

000
ASUS43 KDTX 170810
RWRMI
MICHIGAN HOURLY REGIONAL WEATHER ROUNDUP
NATIONAL WEATHER SERVICE DETROIT/PONTIAC MI
300 AM EST SUN DEC 17 2017

NOTE: "FAIR" INDICATES FEW OR NO CLOUDS BELOW 12,000 FEET WITH NO
SIGNIFICANT WEATHER AND/OR OBSTRUCTION TO VISIBILITY.

MIZ047>049-052>055-059>063-066>070-074>076-081>083-170900-
SOUTHEAST LOWER MICHIGAN

CITY           SKY/WX    TMP DP  RH WIND       PRES   REMARKS
ADRIAN         CLOUDY    25  22  88 E7        30.16R WCI  17
ALMA           CLOUDY    23  21  92 NE9       30.19R WCI  13
ANN ARBOR      CLOUDY    22  17  81 NE9       30.15F WCI  12
BAD AXE        CLOUDY    23  19  87 CALM      30.23F
CARO           CLOUDY    24  20  86 NE5       30.19F WCI  18
DETROIT CITY   CLOUDY    25  20  81 NE7       30.18F WCI  17
DETROIT        CLOUDY    26  18  71 NE6       30.17F WCI  19
FLINT          MOCLDY    19  15  84 E10       30.19R WCI   7
GROSSE ILE     CLOUDY    24  19  83 NE12      30.16F WCI  12
HILLSDALE      FOG       27  25  93 SE7       30.11R VSB 3/4 WCI  19
HOWELL         MOCLDY    20  17  90 NE5       30.14F WCI  13

CITY           SKY/WX    TMP DP  RH WIND       PRES   REMARKS
JACKSON        CLOUDY    26  21  81 NE6       30.12F HAZE    WCI  19
LAMBERTVILLE   CLOUDY    26  23  88 E3        30.15R
LANSING        CLOUDY    20  18  92 NE9       30.16F WCI   9
LAPEER         CLOUDY    24  18  77 E3        30.19S
MASON          CLOUDY    22  18  83 E7        30.14S WCI  14
MONROE         CLOUDY    25  20  82 NE6       30.15S WCI  18
MT. CLEMENS    CLOUDY    23  17  77 NE9       30.18S WCI  13
PONTIAC        CLOUDY    22  15  75 E9        30.15R WCI  12
PORT HOPE        N/A     26  20  77 E8        30.24R WCI  18
PORT HURON     CLOUDY    21  12  68 NE8       30.22S WCI  12
TRI CITIES     CLOUDY    23  20  88 NE10      30.21F WCI  12
MIDLAND        CLOUDY    21  17  85 NE5       30.20F WCI  15
TROY           CLOUDY    24  17  74 NE6       30.20F WCI  17
SAGINAW HB     CLOUDY    23  21  93 NE8       30.20F WCI  14
$$
MIZ043>046-050>051-056>058-064>065-071>073-077>080-170900-
SOUTHWEST LOWER MICHIGAN

CITY           SKY/WX    TMP DP  RH WIND       PRES   REMARKS
BATTLE CREEK   CLOUDY    23  21  92 E6        30.11R FOG     WCI  16
BENTON HARBOR  CLOUDY    28  23  81 E8        30.09R WCI  20
BIG RAPIDS     CLOUDY    21  19  90 E9        30.15F WCI  11
COLDWATER      CLOUDY    26  26  99 SE8       30.11R FOG     WCI  17
HOLLAND        CLEAR     23  18  81 E9        30.13R WCI  13
GRAND RAPIDS   CLOUDY    21  19  92 E14       30.13F WCI   8
IONIA          CLOUDY    21  19  91 NE12G17   30.14F WCI   9
KALAMAZOO      CLOUDY    24  21  88 E5        30.11R FOG     WCI  18
LUDINGTON      CLOUDY    24  19  83 E8        30.15S WCI  15
MARSHALL       CLOUDY    24  24  98 E7        30.11S WCI  16
MOUNT PLEASANT CLOUDY    22  17  82 NE5       30.18F WCI  15
MUSKEGON       CLEAR     23  18  81 E12       30.15R WCI  12
SOUTH HAVEN    CLOUDY    27  23  85 E7        30.10R WCI  19
$$
MIZ016>042-170900-
NORTHERN LOWER MICHIGAN

CITY           SKY/WX    TMP DP  RH WIND       PRES   REMARKS
ALPENA         CLOUDY    16  13  88 CALM      30.27R
BEAVER ISLAND  CLOUDY    19  14  81 E9        30.25S WCI   8
BELLAIRE       CLOUDY    15  13  91 N3        30.24F
CADILLAC       CLOUDY    17  16  97 E7        30.13F FOG     WCI   8
CHARLEVOIX     CLOUDY    15  11  86 E5        30.27S WCI   7
FRANKFORT      CLOUDY    22  16  78 E6        30.17F WCI  15
GAYLORD        CLOUDY    11   7  84 NE5       30.19F WCI   3
GRAYLING       CLOUDY    13   9  85 E6        30.21S WCI   4
HARBOR SPRINGS MOCLDY    10   6  85 NE8       30.25S WCI  -2
HOUGHTON LAKE  CLOUDY    14  12  92 NE8       30.19F WCI   3
MANISTEE       CLOUDY    24  19  81 E10       30.15F WCI  14
OSCODA         CLOUDY    17  12  80 CALM      30.26R
PELLSTON       CLOUDY    -1  -4  87 CALM      30.28R
ROGERS CITY    CLOUDY    15  12  86 CALM      30.29R
TRAVERSE CITY  CLOUDY    19  13  77 E6        30.20F WCI  11
$$
MIZ007>008-015-170900-
EASTERN UPPER MICHIGAN

CITY           SKY/WX    TMP DP  RH WIND       PRES   REMARKS
KINROSS        FLURRIES   1  -5  75 E9        30.29R WCI -14
MACKINAC ISLAN CLOUDY    13  10  85 NE9       30.26F WCI   1
NEWBERRY       CLOUDY     1  -3  85 E5        30.25F WCI  -9
S. S. MARIE    CLOUDY    -1  -6  79 E5        30.31R WCI -11
MUNISING         N/A     11   8  88 S6        30.26S WCI   1
$$
MIZ004>006-011>014-085-170900-
CENTRAL UPPER MICHIGAN

CITY           SKY/WX    TMP DP  RH WIND       PRES   REMARKS
MANISTIQUE     CLOUDY    10   4  75 NE6       30.24S WCI   1
ESCANABA       CLOUDY    16  12  84 NE7       30.23S WCI   6
MENOMINEE      CLOUDY    28  23  81 NE7       30.18F WCI  21
SAWYER-GWINN   CLOUDY    11   8  85 CALM      30.18F
$$
MIZ001>003-009>011-084-170900-
WESTERN UPPER MICHIGAN

CITY           SKY/WX    TMP DP  RH WIND       PRES   REMARKS
IRON MOUNTAIN  CLOUDY    16  12  84 SE3       30.16F
HOUGHTON       CLOUDY    20  13  74 S7        30.15S WCI  11
COPPER HARBOR    N/A     24  18  77 SW10G21   30.18F WCI  14
IRONWOOD       CLOUDY    21  19  93 E3        30.11F
$$

ABBREVIATIONS USED IN REMARKS
   TC - TEMPERATURE IN CELSIUS
  WCI - WIND CHILL INDEX
   HX - HEAT INDEX
  VSB - VISIBILITY





USA.gov is the U.S. government's official web portal to all federal, state and local government web resources and services.